Terug naar catalogus

YUNYAO-1 18

ActiefWetenschapVLEO
NORAD 58758·PAYLOAD·🇨🇳 China

Gelanceerd Jan 11, 2024 vanaf Yellow Sea Launch Area

Loading…

Volgende Passages (komende 24 uur)

TLE

VersSource: Space-Track

Epoch: Sep 14, 2026, 21:51 UTC

1 58758U 24009A   26257.91105966  .00011835  00000-0  47605-3 0  9990
2 58758  50.0125  71.5105 0005409 261.8773  98.1569 15.25250041148533

Volg YUNYAO-1 18 in realtime met AllMySat

Download on the App Store